EW4229 Weather Reports


Display with metric or nautical units.
time (UTC)temp
F
wind
direction
speed
MPH
gust
MPH
rain 1hr
in
rain 24hr
in
rain mn
in
humidity
%
barometer
mb
20260507060104 53 338 1.0 4.0 0.00 0.85 0.40 83 1010.8
20260507054500 53 309 1.0 5.0 0.00 0.85 0.40 84 1010.8
20260507053100 53 302 0.0 3.0 0.39 0.85 0.40 85 1010.4
20260507051600 53 321 1.0 5.0 0.40 0.85 0.40 85 1010.6
20260507050058 53 312 2.0 5.0 0.40 0.85 0.40 86 1010.5
20260507044610 53 297 2.0 9.0 0.40 0.85 0.40 86 1010.7
20260507043104 54 353 1.0 4.0 0.40 0.85 0.40 85 1010.6
20260507041556 54 314 6.0 12.0 0.00 0.45 0.00 85 1010.4
20260507040049 55 297 6.0 13.0 0.00 0.45 0.45 82 1010.5
20260507034546 55 311 3.0 7.0 0.00 0.45 0.45 82 1010.2
20260507033045 55 344 1.0 5.0 0.00 0.45 0.45 82 1010.5
20260507031546 0 0.0 0.0 0.00 0.45 0.45 1009.8
20260507030037 57 4 0.0 6.0 0.00 0.45 0.45 80 1010.2
20260507024535 57 160 2.0 8.0 0.00 0.45 0.45 78 1010.1
20260507023035 57 316 3.0 10.0 0.00 0.45 0.45 78 1010.1
20260507021530 58 342 4.0 10.0 0.00 0.45 0.45 79 1009.9
20260507020044 58 312 6.0 13.0 0.00 0.45 0.45 78 1009.7
20260507014531 59 311 4.0 10.0 0.00 0.45 0.45 78 1009.9
20260507013028 59 302 3.0 8.0 0.00 0.45 0.45 77 1010.0
20260507011539 60 281 3.0 11.0 0.00 0.45 0.45 1009.9
20260507010024 0 0.0 0.0 0.00 0.45 0.45 1009.4
20260507004518 60 276 1.0 10.0 0.00 0.45 0.45 79 1009.2
20260507003018 61 318 4.0 8.0 0.00 0.45 0.45 78 1009.3
20260507001543 61 285 5.0 9.0 0.00 0.45 0.45 78 1008.8
20260507000015 61 350 5.0 11.0 0.00 0.45 0.45 79 1008.3
20260506234515 61 287 2.0 6.0 0.00 0.45 0.45 84 1007.9
20260506233017 62 310 5.0 11.0 0.00 0.45 0.45 84 1007.5
20260506231517 63 293 5.0 11.0 0.00 0.45 0.45 86 1007.6
20260506230014 64 291 4.0 11.0 0.00 0.45 0.45 88 1007.5
20260506224509 65 310 2.0 5.0 0.00 0.45 0.45 88 1007.2
20260506223010 65 217 0.0 5.0 0.00 0.45 0.45 88 1007.1
20260506221510 65 315 0.0 3.0 0.00 0.45 0.45 87 1006.9
20260506220009 66 324 1.0 5.0 0.00 0.45 0.45 86 1006.9
20260506214509 66 213 1.0 6.0 0.00 0.45 0.45 88 1006.7
20260506213008 66 196 3.0 7.0 0.00 0.45 0.45 87 1006.4
20260506211508 66 230 3.0 7.0 0.00 0.45 0.45 87 1006.3
20260506210009 67 209 2.0 6.0 0.00 0.45 0.45 86 1006.3
20260506204508 67 217 0.0 5.0 0.00 0.45 0.45 83 1006.3
20260506203009 0 0.0 0.0 0.00 0.45 0.45 1006.2
20260506201601 0 176 6.0 0.0 0.00 0.45 0.45 1006.2
20260506201501 0 176 6.0 0.0 0.00 0.45 0.45 1006.2
20260506194600 66 56 1.0 5.0 0.00 0.45 0.45 86 1006.3
20260506193101 0 0.0 0.0 0.00 0.45 0.45 1006.4
20260506191548 0 308 4.0 0.0 0.00 0.45 0.45 1006.4
20260506190048 64 261 1.0 5.0 0.00 0.45 0.45 89 1006.5
20260506184547 64 43 0.0 4.0 0.00 0.45 0.45 90 1006.6
20260506183045 63 174 0.0 6.0 0.00 0.45 0.45 90 1006.8
20260506181549 63 330 0.0 4.0 0.00 0.45 0.45 91 1006.9
20260506180040 62 248 1.0 8.0 0.00 0.45 0.45 92 1006.9
20260506174541 62 146 1.0 8.0 0.00 0.45 0.45 92 1007.0
20260506173045 61 338 1.0 8.0 0.00 0.45 0.45 91 1007.0
20260506171541 61 259 3.0 8.0 0.00 0.45 0.45 91 1006.9
20260506170046 61 165 2.0 7.0 0.00 0.45 0.45 92 1007.0
20260506164554 61 159 3.0 10.0 0.00 0.45 0.45 92 1006.9
20260506163042 61 183 1.0 6.0 0.00 0.45 0.45 94 1007.0
20260506161538 60 124 1.0 6.0 0.01 0.45 0.45 94 1007.0
20260506160037 60 233 0.0 6.0 0.05 0.45 0.45 95 1007.1
20260506154539 60 169 1.0 4.0 0.07 0.45 0.45 97 1007.1
20260506153036 60 196 1.0 4.0 0.17 0.45 0.45 97 1007.1
20260506151538 60 139 1.0 5.0 0.23 0.45 0.45 97 1006.9
20260506150042 60 161 2.0 6.0 0.19 0.40 0.40 96 1007.3
20260506144533 60 146 0.0 7.0 0.21 0.39 0.39 93 1007.8
20260506143037 60 195 1.0 5.0 0.16 0.28 0.28 93 1008.1
20260506141540 60 163 0.0 3.0 0.14 0.23 0.23 93 1007.9
20260506140033 60 135 0.0 5.0 0.13 0.21 0.21 93 1007.5
20260506134532 60 154 0.0 8.0 0.12 0.19 0.19 92 1007.5
20260506133030 60 165 2.0 4.0 0.07 0.13 0.13 90 1007.7
20260506131529 61 156 0.0 4.0 0.06 0.10 0.10 90 1007.7
20260506130027 61 180 1.0 7.0 0.05 0.08 0.08 88 1007.5
20260506124527 61 141 0.0 7.0 0.07 0.07 0.07 87 1007.7
20260506123026 61 168 2.0 7.0 0.06 0.06 0.06 86 1007.7
20260506121524 62 208 0.0 7.0 0.05 0.05 0.05 84 1008.0
20260506120043 62 34 0.0 6.0 0.03 0.03 0.03 82 1008.2
20260506114519 63 323 1.0 6.0 0.02 0.02 0.02 79 1007.8
20260506113012 0 0.0 0.0 0.00 0.00 0.00 1007.3
20260506111507 0 0.0 0.0 0.00 0.00 0.00 1007.3
20260506110003 66 347 2.0 10.0 0.00 0.00 0.00 66 1007.1
20260506104502 66 182 3.0 10.0 0.00 0.00 0.00 66 1007.0
20260506103100 67 191 1.0 11.0 0.00 0.00 0.00 65 1006.8
20260506101559 67 214 2.0 8.0 0.00 0.00 0.00 65 1006.7
20260506100111 67 224 0.0 7.0 0.00 0.00 0.00 64 1006.5
20260506094601 67 183 2.0 8.0 0.00 0.00 0.00 64 1006.4
20260506093051 67 332 1.0 6.0 0.00 0.00 0.00 62 1006.6
20260506091549 68 224 0.0 6.0 0.00 0.00 0.00 61 1006.6
20260506090047 68 281 2.0 12.0 0.00 0.00 0.00 60 1007.0
20260506084616 68 146 0.0 8.0 0.00 0.00 0.00 59 1007.0
20260506083048 68 144 1.0 7.0 0.00 0.00 0.00 59 1006.9
20260506081554 68 165 2.0 10.0 0.00 0.00 0.00 58 1006.9
20260506073040 69 133 3.0 9.0 0.00 0.00 0.00 56 1006.9
20260506071538 69 186 0.0 11.0 0.00 0.00 0.00 56 1007.1
20260506061530 70 223 2.0 12.0 0.00 0.00 0.00 52 1007.7